Location: Newark
(42.9277°N, 71.8621°W)
Time: 19:13:36
(UTC+00:00)

Transit 4A - Pass Details

Date: 18 May 2021
Orbit: 872 x 973 km, 66.8° (Epoch: 15 June)

Event Time Altitude Azimuth Distance (km) Brightness Sun altitude
Rises 07:00:45 0° 326° (NW) 3,484 11.2 -20.0°
Reaches altitude 10° 07:03:16 10° 323° (NW) 2,534 10.4 -19.7°
Maximum altitude 07:09:02 64° 244° (WSW) 964 7.7 -19.1°
Enters shadow 07:13:40 16° 166° (SSE) 2,116 9.4 -18.6°
